MSC Kwangyang — D5NP6 — position and weather

sailwx.info

Track history (hours):
 
Tides and Currents Weather Stations Pressure Air Temp Water Temp Dewpoint Dewpoint Depression Visibility Wind Speed Wind Dir Waves Ship Positions

MSC Kwangyang

Last reported at 2017-Dec-16 04:57 UTC. Time now 2017-Dec-16 05:03 UTC.
Position N 40°43' E 029°28'.

Length 304 m; draft 9 m.

Type: Ship. MMSI: 636017973.

Date/timePositionNaut miles runAvg speedWind from/ knotsBaromVisibWave heightAir tempDewpointWater temp
2017-Dec-16 04:57N 40°43' E 029°28'0 0.0
2017-Dec-16 04:27N 40°43' E 029°28'0 0.0
2017-Dec-16 03:51N 40°43' E 029°28'0 0.0
2017-Dec-16 03:27N 40°43' E 029°28'0 0.0
2017-Dec-16 02:51N 40°43' E 029°28'0 0.0
2017-Dec-16 02:27N 40°43' E 029°28'0 0.0
2017-Dec-15 23:21N 40°43' E 029°28'0 0.0
2017-Dec-15 22:39N 40°43' E 029°28'0 0.0
2017-Dec-15 22:27N 40°43' E 029°28'0 0.0
2017-Dec-15 21:45N 40°43' E 029°28'0 0.0
2017-Dec-15 21:27N 40°43' E 029°28'0 0.0
2017-Dec-15 19:51N 40°43' E 029°28'0 0.0
2017-Dec-15 19:27N 40°43' E 029°28'0 0.0
2017-Dec-15 18:09N 40°43' E 029°28'0 0.0
2017-Dec-15 17:57N 40°43' E 029°28'0 0.0
2017-Dec-15 17:27N 40°43' E 029°28'0 0.0
2017-Dec-15 13:51N 40°43' E 029°28'0 0.0
2017-Dec-15 12:45N 40°43' E 029°28'0 0.0
2017-Dec-15 11:33N 40°43' E 029°28'0 0.0
2017-Dec-15 07:46N 40°43' E 029°28'0 0.4
2017-Dec-15 07:30N 40°43' E 029°28'3 5.6
2017-Dec-15 06:59N 40°43' E 029°24'4 8.6
2017-Dec-15 06:28N 40°44' E 029°19'4 7.8
2017-Dec-15 06:00N 40°46' E 029°14'5 9.8
2017-Dec-15 05:30N 40°49' E 029°10'0 0.7
2017-Dec-15 05:00N 40°49' E 029°10'1 1.1
2017-Dec-15 04:30N 40°48' E 029°09'1 1.2
2017-Dec-15 04:00N 40°48' E 029°09'2 1.1
2017-Dec-15 02:30N 40°47' E 029°07'3 1.8
2017-Dec-15 01:00N 40°48' E 029°10'0 0.8
2017-Dec-15 00:30N 40°48' E 029°10'9 1.5
2017-Dec-14 18:30N 40°43' E 028°60'712.8
2017-Dec-14 17:59N 40°43' E 028°51'  
2017-Dec-09 23:16N 38°27' E 025°09'412.8
2017-Dec-09 22:56N 38°24' E 025°05'612.7
2017-Dec-09 22:25N 38°20' E 024°58'512.7
2017-Dec-09 22:00N 38°17' E 024°53'2112.6
2017-Dec-09 20:21N 37°59' E 024°39'512.4
2017-Dec-09 19:55N 37°55' E 024°35'512.3
2017-Dec-09 19:30N 37°52' E 024°30'612.1
2017-Dec-09 19:00N 37°47' E 024°24'612.4
2017-Dec-09 18:30N 37°44' E 024°18'612.3
2017-Dec-09 18:00N 37°39' E 024°13'612.4
2017-Dec-09 17:30N 37°34' E 024°09'612.3
2017-Dec-09 17:00N 37°28' E 024°05'612.2
2017-Dec-09 16:30N 37°23' E 024°01'612.0
2017-Dec-09 16:00N 37°19' E 023°56'612.3
2017-Dec-09 15:30N 37°13' E 023°52'612.7
2017-Dec-09 15:00N 37°08' E 023°47'612.7
2017-Dec-09 14:30N 37°03' E 023°43'612.5
2017-Dec-09 14:00N 36°58' E 023°38'612.3
2017-Dec-09 13:30N 36°52' E 023°35'1512.4
2017-Dec-09 12:19N 36°39' E 023°26'37512.0
2017-Dec-08 05:00N 37°51' E 015°44'710.9
2017-Dec-08 04:22N 37°54' E 015°36'412.1
2017-Dec-08 04:00N 37°58' E 015°35'612.2
2017-Dec-08 03:30N 38°04' E 015°34'612.0
2017-Dec-08 03:00N 38°10' E 015°36'713.3
2017-Dec-08 02:30N 38°16' E 015°40'714.3
2017-Dec-08 02:00N 38°22' E 015°45'713.3
2017-Dec-08 01:30N 38°26' E 015°51'3 2.5
2017-Dec-08 00:21N 38°27' E 015°54'0 0.0
2017-Dec-07 23:15N 38°27' E 015°54'0 0.0
2017-Dec-07 22:51N 38°27' E 015°54'0 0.0
2017-Dec-07 22:21N 38°27' E 015°54'0 0.0
2017-Dec-07 21:51N 38°27' E 015°54'0 0.0
2017-Dec-07 21:15N 38°27' E 015°54'0 0.1
2017-Dec-07 20:51N 38°27' E 015°54'0 0.0
2017-Dec-07 14:33N 38°27' E 015°54'0 0.0
2017-Dec-07 12:27N 38°27' E 015°54'0 0.0
2017-Dec-07 05:57N 38°27' E 015°54'0 0.0
2017-Dec-07 04:57N 38°27' E 015°54'0 0.5
2017-Dec-07 04:30N 38°27' E 015°54'2 3.7
2017-Dec-07 04:00N 38°27' E 015°52'1 2.3
2017-Dec-07 03:30N 38°27' E 015°50'2 4.6
2017-Dec-07 03:00N 38°29' E 015°48'610.7
2017-Dec-07 02:29N 38°33' E 015°43'1 3.0
2017-Dec-07 02:00N 38°34' E 015°43'0 0.4
2017-Dec-07 01:28N 38°34' E 015°42'0 0.5
2017-Dec-07 01:00N 38°34' E 015°42'0 0.6
2017-Dec-07 00:30N 38°33' E 015°42'0 0.6
2017-Dec-07 00:00N 38°33' E 015°43'0 0.6
2017-Dec-06 23:29N 38°33' E 015°43'0 0.6
2017-Dec-06 22:58N 38°32' E 015°43'0 0.7
2017-Dec-06 22:30N 38°32' E 015°43'0 0.6
2017-Dec-06 22:00N 38°32' E 015°43'0 0.7
2017-Dec-06 21:29N 38°32' E 015°43'0 0.7
2017-Dec-06 20:59N 38°31' E 015°44'  
Track history (hours):
 
Tides and Currents Weather Stations Pressure Air Temp Water Temp Dewpoint Dewpoint Depression Visibility Wind Speed Wind Dir Waves Ship Positions

MSC Kwangyang

Last reported at 2017-Dec-16 04:57 UTC. Time now 2017-Dec-16 05:03 UTC.
Position N 40°43' E 029°28'.

Length 304 m; draft 9 m.

Type: Ship. MMSI: 636017973.

Date/timePositionNaut miles runAvg speedWind from/ knotsBaromVisibWave heightAir tempDewpointWater temp
2017-Dec-16 04:57N 40°43' E 029°28'0 0.0
2017-Dec-16 04:27N 40°43' E 029°28'0 0.0
2017-Dec-16 03:51N 40°43' E 029°28'0 0.0
2017-Dec-16 03:27N 40°43' E 029°28'0 0.0
2017-Dec-16 02:51N 40°43' E 029°28'0 0.0
2017-Dec-16 02:27N 40°43' E 029°28'0 0.0
2017-Dec-15 23:21N 40°43' E 029°28'0 0.0
2017-Dec-15 22:39N 40°43' E 029°28'0 0.0
2017-Dec-15 22:27N 40°43' E 029°28'0 0.0
2017-Dec-15 21:45N 40°43' E 029°28'0 0.0
2017-Dec-15 21:27N 40°43' E 029°28'0 0.0
2017-Dec-15 19:51N 40°43' E 029°28'0 0.0
2017-Dec-15 19:27N 40°43' E 029°28'0 0.0
2017-Dec-15 18:09N 40°43' E 029°28'0 0.0
2017-Dec-15 17:57N 40°43' E 029°28'0 0.0
2017-Dec-15 17:27N 40°43' E 029°28'0 0.0
2017-Dec-15 13:51N 40°43' E 029°28'0 0.0
2017-Dec-15 12:45N 40°43' E 029°28'0 0.0
2017-Dec-15 11:33N 40°43' E 029°28'0 0.0
2017-Dec-15 07:46N 40°43' E 029°28'0 0.4
2017-Dec-15 07:30N 40°43' E 029°28'3 5.6
2017-Dec-15 06:59N 40°43' E 029°24'4 8.6
2017-Dec-15 06:28N 40°44' E 029°19'4 7.8
2017-Dec-15 06:00N 40°46' E 029°14'5 9.8
2017-Dec-15 05:30N 40°49' E 029°10'0 0.7
2017-Dec-15 05:00N 40°49' E 029°10'1 1.1
2017-Dec-15 04:30N 40°48' E 029°09'1 1.2
2017-Dec-15 04:00N 40°48' E 029°09'2 1.1
2017-Dec-15 02:30N 40°47' E 029°07'3 1.8
2017-Dec-15 01:00N 40°48' E 029°10'0 0.8
2017-Dec-15 00:30N 40°48' E 029°10'9 1.5
2017-Dec-14 18:30N 40°43' E 028°60'712.8
2017-Dec-14 17:59N 40°43' E 028°51'  
2017-Dec-09 23:16N 38°27' E 025°09'412.8
2017-Dec-09 22:56N 38°24' E 025°05'612.7
2017-Dec-09 22:25N 38°20' E 024°58'512.7
2017-Dec-09 22:00N 38°17' E 024°53'2112.6
2017-Dec-09 20:21N 37°59' E 024°39'512.4
2017-Dec-09 19:55N 37°55' E 024°35'512.3
2017-Dec-09 19:30N 37°52' E 024°30'612.1
2017-Dec-09 19:00N 37°47' E 024°24'612.4
2017-Dec-09 18:30N 37°44' E 024°18'612.3
2017-Dec-09 18:00N 37°39' E 024°13'612.4
2017-Dec-09 17:30N 37°34' E 024°09'612.3
2017-Dec-09 17:00N 37°28' E 024°05'612.2
2017-Dec-09 16:30N 37°23' E 024°01'612.0
2017-Dec-09 16:00N 37°19' E 023°56'612.3
2017-Dec-09 15:30N 37°13' E 023°52'612.7
2017-Dec-09 15:00N 37°08' E 023°47'612.7
2017-Dec-09 14:30N 37°03' E 023°43'612.5
2017-Dec-09 14:00N 36°58' E 023°38'612.3
2017-Dec-09 13:30N 36°52' E 023°35'1512.4
2017-Dec-09 12:19N 36°39' E 023°26'37512.0
2017-Dec-08 05:00N 37°51' E 015°44'710.9
2017-Dec-08 04:22N 37°54' E 015°36'412.1
2017-Dec-08 04:00N 37°58' E 015°35'612.2
2017-Dec-08 03:30N 38°04' E 015°34'612.0
2017-Dec-08 03:00N 38°10' E 015°36'713.3
2017-Dec-08 02:30N 38°16' E 015°40'714.3
2017-Dec-08 02:00N 38°22' E 015°45'713.3
2017-Dec-08 01:30N 38°26' E 015°51'3 2.5
2017-Dec-08 00:21N 38°27' E 015°54'0 0.0
2017-Dec-07 23:15N 38°27' E 015°54'0 0.0
2017-Dec-07 22:51N 38°27' E 015°54'0 0.0
2017-Dec-07 22:21N 38°27' E 015°54'0 0.0
2017-Dec-07 21:51N 38°27' E 015°54'0 0.0
2017-Dec-07 21:15N 38°27' E 015°54'0 0.1
2017-Dec-07 20:51N 38°27' E 015°54'0 0.0
2017-Dec-07 14:33N 38°27' E 015°54'0 0.0
2017-Dec-07 12:27N 38°27' E 015°54'0 0.0
2017-Dec-07 05:57N 38°27' E 015°54'0 0.0
2017-Dec-07 04:57N 38°27' E 015°54'0 0.5
2017-Dec-07 04:30N 38°27' E 015°54'2 3.7
2017-Dec-07 04:00N 38°27' E 015°52'1 2.3
2017-Dec-07 03:30N 38°27' E 015°50'2 4.6
2017-Dec-07 03:00N 38°29' E 015°48'610.7
2017-Dec-07 02:29N 38°33' E 015°43'1 3.0
2017-Dec-07 02:00N 38°34' E 015°43'0 0.4
2017-Dec-07 01:28N 38°34' E 015°42'0 0.5
2017-Dec-07 01:00N 38°34' E 015°42'0 0.6
2017-Dec-07 00:30N 38°33' E 015°42'0 0.6
2017-Dec-07 00:00N 38°33' E 015°43'0 0.6
2017-Dec-06 23:29N 38°33' E 015°43'0 0.6
2017-Dec-06 22:58N 38°32' E 015°43'0 0.7
2017-Dec-06 22:30N 38°32' E 015°43'0 0.6
2017-Dec-06 22:00N 38°32' E 015°43'0 0.7
2017-Dec-06 21:29N 38°32' E 015°43'0 0.7
2017-Dec-06 20:59N 38°31' E 015°44'  

Dump ship's entire track history